Regional Weather Roundup
Issued by NWS Northern Indiana

Home | Current Version | Previous Version | Text Only | Print | Product List | Glossary On
Versions: 1 2 3 4 5 6 7 8 9 10 11 12 13 14 15 16 17 18 19 20 21 22 23 24 25 26 27 28 29 30 31 32 33 34 35 36 37 38 39 40 41 42 43 44 45 46 47 48 49 50
000
ASUS43 KIWX 211110
RWRIWX

KIWX WEATHER ROUNDUP
NATIONAL WEATHER SERVICE NORTHERN INDIANA
600 AM EST TUE FEB 21 2017

NOTE: "FAIR" INDICATES FEW OR NO CLOUDS BELOW 12,000 FEET WITH NO
SIGNIFICANT WEATHER AND/OR OBSTRUCTIONS TO VISIBILITY.

* THESE STATIONS ARE NOT UNDER NWS QUALITY CONTROL. THEY ALSO MAY NOT
  REPORT WEATHER SUCH AS PRECIPITATION OR FOG.

INZ001>027-211200-
NORTHERN INDIANA

CITY           SKY/WX    TMP DP  RH WIND       PRES   REMARKS
GARY*          LGT RAIN  57  46  67 SW7       29.94R
VALPARAISO     CLOUDY    55  48  77 S7        29.95R
MICHIGAN CITY* CLOUDY    55  46  71 SW7       29.95R
LAPORTE*       CLOUDY    53  47  79 W3        29.95S
KNOX*          CLOUDY    54  28  37 S7        29.94F
SOUTH BEND     CLOUDY    53  45  74 SW5       29.95S
GOSHEN         CLOUDY    53  41  63 S7        29.94F
MONTICELLO*    CLOUDY    54  46  74 S3        29.95R
LOGANSPORT*    CLOUDY    52  45  76 S6        29.96S
ROCHESTER*     CLOUDY    54  45  71 S5        29.96R
WARSAW*        CLOUDY    52  41  66 S3        29.95S
ANGOLA*        CLOUDY    45  39  81 S3        29.97R
FORT WAYNE     CLOUDY    46  39  76 SE5       29.97F
HUNTINGTON*    MOCLDY    45  41  85 CALM      29.97S
PERU/GRISSOM   CLOUDY    53  47  81 S8        29.95R
MARION*        PTCLDY    48  41  77 S6        29.99R

$$
INZ028>050-211200-
CENTRAL INDIANA

CITY           SKY/WX    TMP DP  RH WIND       PRES   REMARKS
LAFAYETTE      CLOUDY    55  47  74 CALM      29.95R
KOKOMO*        CLOUDY    51  45  79 S9        29.98R
MUNCIE*        PTCLDY    54  41  61 S6        29.99R
INDIANAPOLIS   CLOUDY    52  44  74 SE3       29.98R

$$
MIZ043>046-050>051-056>058-064>065-071>073-077>080-211200-
SOUTHWEST LOWER MICHIGAN

CITY           SKY/WX    TMP DP  RH WIND       PRES   REMARKS
BATTLE CREEK   PTCLDY    49  40  71 S9        29.94F
BENTON HARBOR  CLOUDY    57  45  64 S8        29.93R
COLDWATER*     CLOUDY    48  39  71 S6        29.96S
HILLSDALE*     CLOUDY    41  36  81 S9        29.95F
HOLLAND        LGT RAIN  56  46  69 S14G21    29.91S
GRAND RAPIDS   CLOUDY    50  39  66 S14       29.92R
KALAMAZOO      CLOUDY    48  38  68 S8        29.94S
STURGIS*       CLOUDY    48  40  74 S6        29.95S
THREE RIVERS*  MOCLDY    48  40  74 S9        29.95S

$$
OHZ001>008-015>018-024>025-211200-
NORTHWEST OHIO

CITY           SKY/WX    TMP DP  RH WIND       PRES   REMARKS
WAUSEON*       FAIR      37  36  93 NE5       29.97F
DEFIANCE       CLOUDY    39  35  86 CALM      29.99S
FINDLAY        CLOUDY    49  39  68 S9        29.98F
TOLEDO EXPRESS CLOUDY    39  35  86 CALM      29.99R
TOLEDO METCALF CLOUDY    38  35  89 CALM      30.00S
LIMA           CLOUDY    51  41  68 S13       29.99S

$$
AND FOR LAKE MICHIGAN COASTAL AND OPEN LAKE BUOY OBSERVATIONS

STATION/POSITION TEMP    WIND        PRES    VSBY  WAVE
                 AIR SEA DIR/SP/G                  HT/PER
                 (F)     (DEG/KT/KT) (MB)    (MI)  (FT/S)
CALUMET HARBOR    54     210/  6/  8 1012.9R
MICHIGAN CITY     56     170/ 10/ 12   N/A
BURNS HARBOR      56     190/ 10/ 13 1014.6R

$$
&&



USA.gov is the U.S. government's official web portal to all federal, state and local government web resources and services.